Location: Helsinki
(60.1699°N, 24.9384°E)
Time: 22:51:33
(UTC+02:00)

Vanguard 2 Rocket - Pass Details

Date: 27 September 2023
Orbit: 553 x 3312 km, 32.9° (Epoch: 28 November)

Event Time Altitude Azimuth Distance (km) Brightness Sun altitude
Rises 18:03:35 0° 264° (W) 7,297 13.7 6.8°
Reaches altitude 10° 18:12:23 10° 245° (WSW) 6,091 13.3 5.8°
Maximum altitude 18:19:53 14° 221° (SW) 5,402 11.8 4.9°
Drops below altitude 10° 18:26:32 10° 196° (SSW) 5,276 11.2 4.1°
Sets 18:33:01 0° 174° (S) 5,706 11.0 3.3°
